FREGAT DEB

Last updated on Wed Aug 26 2026 00:02:34 GMT+0000 (Coordinated Universal Time)

1 49271U 11037PF 26237.45293196 .00016289 00000+0 24580-1 0 9999 2 49271 51.6398 153.4245 0926713 75.3644 294.8017 12.43763643233668
UTC large
Height (km)
Speed (km/s)
/
Latitude / Longitude
Inclination (degrees)
Orbital Period (minutes)
Azimuth
Elevation
Range (km)
Doppler Factor

Next 0 passes for location: London (51.5072 / 0.1276)

No passes found over London.
FREGAT DEB